Location: Stara Lesna
(49.1528°N, 20.2911°E)
Time: 09:48:21
(UTC+02:00)

Cosmos 1048 Rocket - Pass Details

Date: 13 July 2020
Orbit: 744 x 791 km, 74.0° (Epoch: 06 August)

Event Time Altitude Azimuth Distance (km) Brightness Sun altitude
Exits shadow 00:22:20 21° 224° (SW) 1,663 5.4 -18.9°
Maximum altitude 00:25:44 58° 297° (WNW) 894 4.4 -18.9°
Drops below altitude 10° 00:30:54 10° 17° (NNE) 2,305 7.5 -19.0°
Sets 00:33:18 0° 22° (NNE) 3,228 8.4 -19.0°
